Regional Weather Roundup
Issued by NWS

Home | Current Version | Previous Version | Text Only | Print | Product List | Glossary On
Versions: 1 2 3 4 5 6 7 8 9 10 11 12 13 14 15 16 17 18 19 20 21 22 23 24 25 26 27 28 29 30 31 32 33 34 35 36 37 38 39 40 41 42 43 44 45 46 47 48 49 50
000
ASUS45 KABQ 110210
RWRNM
NEW MEXICO REGIONAL WEATHER ROUNDUP
NATIONAL WEATHER SERVICE ALBUQUERQUE NM
700 PM MST SUN DEC 10 2017

NOTE: "FAIR" MEANS FEW OR NO CLOUDS BELOW 12,000 FEET AGL WITH NO
       SIGNIFICANT WEATHER OR OBSTRUCTIONS TO VISION.

      THIS PRODUCT IS RELEASED AS TWO VERSIONS.  ONE VERSION NEAR
      THE TOP OF THE HOUR CONTAINING PRELIMINARY DATA FROM ALBUQUERQUE
      AND OTHER STATIONS.  A FINAL VERSION WITH ADDITIONAL DATA IS
      ISSUED ABOUT 10 MINUTES AFTER THE HOUR.

NMZ501-503-504-510>518-110300-
NORTHWEST PLATEAU/NORTHCENTRAL MOUNTAINS

CITY           SKY/WX    TMP DP  RH WIND       PRES   REMARKS
FARMINGTON     FAIR      35   5  28 CALM      30.47R
LOS ALAMOS     MOCLDY    45   4  18 W5        30.47S
SANTA FE       FAIR      33   3  28 NE5       30.45S WCI  29
TAOS           FAIR      26   0  32 CALM      30.49S
ANGEL FIRE     FAIR      19   1  44 SW5       30.49S WCI  13

$$
NMZ402-403-502-505>509-110300-
WESTCENTRAL MOUNTAINS/SOUTHWEST MOUNTAINS

CITY           SKY/WX    TMP DP  RH WIND       PRES   REMARKS
GALLUP         FAIR      19  -9  28 CALM      30.48R
GRANTS         FAIR      31  -6  20 CALM      30.50R
SILVER CITY    FAIR      30   4  33 CALM      30.44R

$$
NMZ407-409-411-412-110300-
SOUTHERN DESERTS

CITY           SKY/WX    TMP DP  RH WIND       PRES   REMARKS
DEMING         FAIR      43  11  27 NE9       30.42R
LAS CRUCES     FAIR      38  18  44 CALM      30.44R
HOLLOMAN AFB   FAIR      38  13  35 NE8       30.44S WCI  32
ALAMOGORDO     FAIR      39   9  28 CALM      30.43S
T OR C         FAIR      46   8  21 CALM      30.43R

$$
NMZ519>523-110300-
CENTRAL VALLEYS/CENTRAL HIGHLANDS

CITY           SKY/WX    TMP DP  RH WIND       PRES   REMARKS
ALBUQUERQUE    FAIR      37   1  22 SE5       30.45S WCI  33
DOUBLE EAGLE   CLEAR     23  -2  33 VRB5      30.47R WCI  17
MORIARTY ARPT  FAIR      28  -2  27 NE5       30.47R WCI  22
CLINES CORNERS NOT AVBL
BELEN          FAIR      37   4  25 CALM      30.46R
SOCORRO        FAIR      36   4  26 NW3       30.43S

$$
NMZ524>526-539-540-110300-
SOUTHCENTRAL MOUNTAINS

CITY           SKY/WX    TMP DP  RH WIND       PRES   REMARKS
RUIDOSO        FAIR      41   5  22 CALM      30.48S

$$
NMZ527>531-110300-
NORTHEAST HIGHLANDS/NORTHEAST PLAINS

CITY           SKY/WX    TMP DP  RH WIND       PRES   REMARKS
LAS VEGAS      FAIR      33   0  24 S10       30.41F WCI  25
RATON          FAIR      32  -3  22 CALM      30.40R
CLAYTON        FAIR      41   1  18 SW8       30.35F

$$
NMZ532>537-110300-
EASTCENTRAL PLAINS

CITY           SKY/WX    TMP DP  RH WIND       PRES   REMARKS
SANTA ROSA     FAIR      43   4  19 SW8       30.38R
TUCUMCARI      FAIR      42   4  20 CALM      30.34S
CANNON AFB     FAIR      38  10  31 N6        30.39R WCI  34
CLOVIS AIRPORT FAIR      36  11  35 W5        30.39R WCI  32

$$
NMZ028-029-538-110300-
SOUTHEAST PLAINS

CITY           SKY/WX    TMP DP  RH WIND       PRES   REMARKS
ROSWELL        FAIR      48  15  26 S9        30.38R
ARTESIA        FAIR      41  19  42 SW12      30.39S
CARLSBAD       FAIR      40  31  70 CALM      30.37S
HOBBS          FAIR      39   9  28 SW12      30.40S WCI  32


$$



USA.gov is the U.S. government's official web portal to all federal, state and local government web resources and services.